Location: Unspecified
(0.0000°N, 0.0000°E)
Time: 21:33:22
(UTC+00:00)

deb Kosmos-1275 - Pass Details

Date: 12 March 2026
Orbit: 924 x 994 km, 82.9° (Epoch: 11 April)

Event Time Altitude Azimuth Distance (km) Brightness Sun altitude
Rises 05:37:26 0° 165° (SSE) 3,641 ? -8.1°
Reaches altitude 10° 05:40:13 10° 155° (SSE) 2,682 ? -7.4°
Maximum altitude 05:45:35 32° 93° (E) 1,556 ? -6.0°
Drops below altitude 10° 05:50:51 10° 32° (NNE) 2,634 ? -4.7°
Sets 05:53:33 0° 22° (NNE) 3,568 ? -4.1°
